When you browse on this site, cookies collect data to enhance your experience and personalize the content and advertising you see.
Visit our Privacy Policy to learn more. By continuing to use the site, you agree to this use of cookies and data.
  • en Suisse
  • Liste des pays
  • À 7 jours
  • Température de l'eau
  • Carte météo
  • Widgets météo
  • user-avatar
    Se connecter

    Météo par heure à Newcastle

    Ce jour, 21 Août, Mercredi

    Heure Température Précipitation Vent Pression Humidité
    00:00 +10°C° 0 mm 7 m/s 764 mmHg 60%
    01:00 +9°C° 0 mm 7 m/s 764 mmHg 62%
    02:00 +9°C° 0 mm 7 m/s 764 mmHg 63%
    03:00 +9°C° 0 mm 7 m/s 763 mmHg 64%
    04:00 +9°C° 0 mm 7 m/s 762 mmHg 66%
    05:00 +9°C° 0 mm 7 m/s 762 mmHg 67%
    06:00 +9°C° 0 mm 7 m/s 762 mmHg 67%
    07:00 +9°C° 0 mm 7 m/s 762 mmHg 67%
    08:00 +11°C° 0 mm 7 m/s 762 mmHg 61%
    09:00 +13°C° 0 mm 8 m/s 762 mmHg 55%
    10:00 +16°C° 0 mm 8 m/s 761 mmHg 48%
    11:00 +18°C° 0 mm 7 m/s 761 mmHg 45%
    12:00 +20°C° 0 mm 7 m/s 760 mmHg 42%
    13:00 +21°C° 0 mm 6 m/s 760 mmHg 39%
    14:00 +21°C° 0 mm 6 m/s 760 mmHg 38%
    15:00 +21°C° 0 mm 5 m/s 759 mmHg 37%
    16:00 +21°C° 0 mm 4 m/s 759 mmHg 37%
    17:00 +20°C° 0 mm 5 m/s 760 mmHg 41%
    18:00 +17°C° 0 mm 6 m/s 760 mmHg 45%
    19:00 +16°C° 0 mm 6 m/s 760 mmHg 49%
    20:00 +15°C° 0 mm 7 m/s 760 mmHg 52%
    21:00 +15°C° 0 mm 7 m/s 760 mmHg 54%
    22:00 +14°C° 0 mm 7 m/s 761 mmHg 56%
    23:00 +12°C° 0 mm 7 m/s 760 mmHg 57%

    Demain, 22 Août, Jeudi

    Heure Température Précipitation Vent Pression Humidité
    00:00 +12°C° 0 mm 7 m/s 760 mmHg 59%
    01:00 +12°C° 0 mm 7 m/s 760 mmHg 60%
    02:00 +12°C° 0 mm 8 m/s 759 mmHg 60%
    03:00 +12°C° 0 mm 8 m/s 759 mmHg 60%
    04:00 +12°C° 0 mm 8 m/s 759 mmHg 60%
    05:00 +12°C° 0 mm 8 m/s 759 mmHg 59%
    06:00 +12°C° 0 mm 8 m/s 758 mmHg 58%
    07:00 +12°C° 0 mm 8 m/s 758 mmHg 57%
    08:00 +15°C° 0 mm 8 m/s 759 mmHg 51%
    09:00 +17°C° 0 mm 8 m/s 759 mmHg 45%
    10:00 +18°C° 0 mm 8 m/s 759 mmHg 39%
    11:00 +18°C° 0 mm 8 m/s 759 mmHg 39%
    12:00 +18°C° 0 mm 9 m/s 759 mmHg 39%
    13:00 +17°C° 0 mm 10 m/s 759 mmHg 39%
    14:00 +16°C° 0 mm 10 m/s 760 mmHg 43%
    15:00 +14°C° 0 mm 10 m/s 760 mmHg 46%
    16:00 +13°C° 0 mm 9 m/s 761 mmHg 50%
    17:00 +12°C° 0 mm 9 m/s 762 mmHg 53%
    18:00 +11°C° 0 mm 8 m/s 763 mmHg 57%
    19:00 +11°C° 0 mm 8 m/s 764 mmHg 60%
    20:00 +10°C° 0 mm 7 m/s 765 mmHg 62%
    21:00 +9°C° 0 mm 7 m/s 766 mmHg 65%
    22:00 +9°C° 0 mm 7 m/s 766 mmHg 67%
    23:00 +8°C° 0 mm 6 m/s 767 mmHg 69%

    Après-demain, 23 Août, Vendredi

    Heure Température Précipitation Vent Pression Humidité
    00:00 +7°C° 0 mm 6 m/s 767 mmHg 72%
    01:00 +5°C° 0 mm 6 m/s 767 mmHg 74%
    02:00 +5°C° 0 mm 6 m/s 767 mmHg 72%
    03:00 +6°C° 0 mm 5 m/s 767 mmHg 70%
    04:00 +5°C° 0 mm 5 m/s 767 mmHg 68%
    05:00 +5°C° 0 mm 5 m/s 768 mmHg 69%
    06:00 +4°C° 0 mm 4 m/s 768 mmHg 70%
    07:00 +4°C° 0 mm 4 m/s 768 mmHg 71%
    08:00 +6°C° 0 mm 4 m/s 768 mmHg 64%
    09:00 +10°C° 0 mm 3 m/s 769 mmHg 57%
    10:00 +13°C° 0 mm 3 m/s 769 mmHg 51%
    11:00 +16°C° 0 mm 2 m/s 768 mmHg 48%
    12:00 +17°C° 0 mm 2 m/s 767 mmHg 45%
    13:00 +20°C° 0 mm 1 m/s 767 mmHg 42%
    14:00 +19°C° 0 mm 1 m/s 766 mmHg 44%
    15:00 +18°C° 0 mm 2 m/s 766 mmHg 45%
    16:00 +18°C° 0 mm 2 m/s 766 mmHg 47%
    17:00 +15°C° 0 mm 2 m/s 766 mmHg 57%
    18:00 +12°C° 0 mm 3 m/s 767 mmHg 67%
    19:00 +10°C° 0 mm 3 m/s 767 mmHg 77%
    20:00 +9°C° 0 mm 3 m/s 767 mmHg 81%
    21:00 +8°C° 0 mm 3 m/s 767 mmHg 85%
    22:00 +7°C° 0 mm 4 m/s 767 mmHg 88%
    23:00 +7°C° 0 mm 3 m/s 766 mmHg 89%

    24 Août, Samedi

    Heure Température Précipitation Vent Pression Humidité
    00:00 +7°C° 0 mm 3 m/s 766 mmHg 89%
    01:00 +7°C° 0 mm 3 m/s 766 mmHg 89%
    02:00 +5°C° 0 mm 3 m/s 765 mmHg 86%
    03:00 +5°C° 0 mm 4 m/s 765 mmHg 83%
    04:00 +5°C° 0 mm 4 m/s 765 mmHg 80%
    05:00 +5°C° 0 mm 4 m/s 765 mmHg 75%
    06:00 +6°C° 0 mm 5 m/s 765 mmHg 70%
    07:00 +6°C° 0 mm 5 m/s 765 mmHg 65%
    08:00 +9°C° 0 mm 5 m/s 765 mmHg 55%
    09:00 +14°C° 0 mm 6 m/s 765 mmHg 45%
    10:00 +17°C° 0 mm 6 m/s 764 mmHg 35%
    11:00 +19°C° 0 mm 6 m/s 764 mmHg 33%
    12:00 +21°C° 0 mm 6 m/s 763 mmHg 32%
    13:00 +22°C° 0 mm 6 m/s 762 mmHg 30%
    14:00 +22°C° 0 mm 6 m/s 762 mmHg 31%
    15:00 +22°C° 0 mm 5 m/s 761 mmHg 33%
    16:00 +22°C° 0 mm 5 m/s 761 mmHg 35%
    17:00 +20°C° 0 mm 5 m/s 762 mmHg 42%
    18:00 +17°C° 0 mm 4 m/s 762 mmHg 49%
    19:00 +14°C° 0 mm 3 m/s 763 mmHg 56%
    20:00 +13°C° 0 mm 3 m/s 763 mmHg 59%
    21:00 +12°C° 0 mm 3 m/s 763 mmHg 62%
    22:00 +11°C° 0 mm 3 m/s 763 mmHg 65%
    23:00 +11°C° 0 mm 3 m/s 763 mmHg 67%

    25 Août, Dimanche

    Heure Température Précipitation Vent Pression Humidité
    00:00 +10°C° 0 mm 3 m/s 763 mmHg 70%
    01:00 +9°C° 0 mm 3 m/s 763 mmHg 73%
    02:00 +9°C° 0 mm 3 m/s 763 mmHg 76%
    03:00 +8°C° 0 mm 3 m/s 763 mmHg 78%
    04:00 +8°C° 0 mm 3 m/s 762 mmHg 80%
    05:00 +8°C° 0 mm 3 m/s 763 mmHg 81%
    06:00 +8°C° 0 mm 3 m/s 763 mmHg 81%
    07:00 +8°C° 0 mm 3 m/s 763 mmHg 81%
    08:00 +11°C° 0 mm 3 m/s 763 mmHg 68%
    09:00 +14°C° 0 mm 3 m/s 763 mmHg 56%
    10:00 +19°C° 0 mm 3 m/s 763 mmHg 43%
    11:00 +20°C° 0 mm 3 m/s 763 mmHg 39%
    12:00 +21°C° 0 mm 3 m/s 762 mmHg 36%
    13:00 +24°C° 0 mm 3 m/s 762 mmHg 32%
    14:00 +21°C° 0 mm 4 m/s 762 mmHg 38%
    15:00 +20°C° 0 mm 4 m/s 762 mmHg 45%
    16:00 +18°C° 0 mm 4 m/s 762 mmHg 52%
    17:00 +17°C° 0.1 mm 4 m/s 762 mmHg 64%
    18:00 +14°C° 0.1 mm 4 m/s 763 mmHg 76%
    19:00 +12°C° 0.1 mm 4 m/s 764 mmHg 88%
    20:00 +12°C° 0.6 mm 3 m/s 764 mmHg 90%
    21:00 +12°C° 0.6 mm 3 m/s 765 mmHg 92%
    22:00 +11°C° 0.6 mm 3 m/s 765 mmHg 94%
    23:00 +11°C° 0.5 mm 3 m/s 765 mmHg 94%

    26 Août, Lundi

    Heure Température Précipitation Vent Pression Humidité
    00:00 +11°C° 0.5 mm 3 m/s 765 mmHg 94%
    01:00 +11°C° 0.5 mm 3 m/s 765 mmHg 94%
    02:00 +10°C° 0.3 mm 3 m/s 765 mmHg 95%
    03:00 +10°C° 0.3 mm 3 m/s 765 mmHg 95%
    04:00 +9°C° 0.3 mm 3 m/s 765 mmHg 95%
    05:00 +9°C° 0.1 mm 3 m/s 765 mmHg 96%
    06:00 +9°C° 0.1 mm 2 m/s 765 mmHg 96%
    07:00 +9°C° 0.1 mm 2 m/s 766 mmHg 97%
    08:00 +13°C° 0.1 mm 2 m/s 766 mmHg 88%
    09:00 +15°C° 0.1 mm 2 m/s 766 mmHg 80%
    10:00 +17°C° 0.1 mm 2 m/s 766 mmHg 71%
    11:00 +18°C° 0.2 mm 3 m/s 766 mmHg 68%
    12:00 +18°C° 0.2 mm 3 m/s 765 mmHg 65%
    13:00 +19°C° 0.2 mm 4 m/s 765 mmHg 62%
    14:00 +18°C° 0.1 mm 4 m/s 765 mmHg 64%
    15:00 +18°C° 0.1 mm 4 m/s 765 mmHg 65%
    16:00 +17°C° 0.1 mm 4 m/s 765 mmHg 66%
    17:00 +16°C° 0.1 mm 3 m/s 765 mmHg 74%
    18:00 +13°C° 0.1 mm 3 m/s 766 mmHg 81%
    19:00 +13°C° 0.1 mm 2 m/s 767 mmHg 88%
    20:00 +13°C° 0.3 mm 2 m/s 767 mmHg 89%
    21:00 +12°C° 0.3 mm 2 m/s 767 mmHg 90%
    22:00 +12°C° 0.3 mm 1 m/s 767 mmHg 91%
    23:00 +12°C° 0.6 mm 1 m/s 767 mmHg 92%
    Voir plus